Weather History for CXSE - February, 2013

Change the Weather History Date:

Friday, February 8, 2013

  Actual Average Record
Temperature  
Mean Temperature -38 °F -  
Max Temperature -35 °F - - ()
Min Temperature -40 °F - - ()
Degree Days  
Heating Degree Days 102    
Moisture  
Dew Point -46 °F    
Average Humidity 63    
Maximum Humidity 67    
Minimum Humidity 46    
Precipitation  
Precipitation 0.00 in - - ()
Sea Level Pressure  
Sea Level Pressure 30.05 in    
Wind  
Wind Speed 7 mph ()    
Max Wind Speed 13 mph    
Max Gust Speed -    
T = Trace of Precipitation, MM = Missing Value Source: Averaged Metar Reports

Daily Weather History Graph

Daily Weather History Graph

Search for Another Location

Airport or City:

Trip Planner

Search our weather history database for the weather conditions in past years. The results will help you decide how hot, cold, wet, or windy it might be!

Date:

Astronomy

Feb. 08, 2013 Rise Set
Actual Time 10:09 AM MST 2:23 PM MST
Civil Twilight 8:20 AM MST 4:11 PM MST
Nautical Twilight 6:47 AM MST 5:45 PM MST
Astronomical Twilight 5:21 AM MST 7:11 PM MST
Moon 10:04 AM MST (2/8) 11:45 AM MST (2/8)
Length of Visible Light 7h 50m
Length of Day
4h 13m
Waning Crescent, 3% of the Moon is Illuminated
Feb 8
Waning Crescent
Feb 10
New
Feb 17
First Quarter
Feb 25
Full
Mar 4
Last Quarter

Hourly Weather History & Observations

Time (MST) Temp. Windchill Dew Point Humidity Pressure Visibility Wind Dir Wind Speed Gust Speed Precip Events Conditions
12:00 AM -35.5 °F -61.6 °F -42.9 °F 67% 30.04 in - West 11.5 mph - N/A   Unknown
1:00 AM -36.8 °F -60.5 °F -44.0 °F 67% 30.04 in - West 9.2 mph - N/A   Unknown
3:00 AM -36.4 °F -61.5 °F -43.8 °F 67% 30.05 in - West 10.4 mph - N/A   Unknown
4:00 AM -36.2 °F -63.7 °F -43.6 °F 67% 30.04 in - West 12.7 mph - N/A   Unknown
5:00 AM -37 °F - -44 °F 48% 30.04 in - West 9.2 mph - -  
6:00 AM -36.6 °F -60.3 °F -44.0 °F 67% 30.04 in - West 9.2 mph - N/A   Unknown
7:00 AM -37.5 °F -59.8 °F -44.7 °F 67% 30.04 in - West 8.1 mph - N/A   Unknown
8:00 AM -39.1 °F -61.8 °F -46.7 °F 66% 30.04 in - West 8.1 mph - N/A   Unknown
9:00 AM -38.2 °F -56.9 °F -45.8 °F 66% 30.04 in - West 5.8 mph - N/A   Unknown
10:00 AM -38.9 °F -55.3 °F -46.3 °F 66% 30.04 in - West 4.6 mph - N/A   Unknown
11:00 AM -39 °F - -46 °F 49% 30.04 in - West 4.6 mph - -  
11:00 AM -38.6 °F -54.9 °F -46.1 °F 66% 30.04 in - West 4.6 mph - N/A   Unknown
12:00 PM -39.8 °F -58.8 °F -47.6 °F 65% 30.04 in - West 5.8 mph - N/A   Unknown
1:00 PM -38.7 °F -61.4 °F -46.8 °F 64% 30.05 in - West 8.1 mph - N/A   Unknown
2:00 PM -40.5 °F -61.8 °F -48.5 °F 64% 30.06 in - WSW 6.9 mph - N/A   Unknown
3:00 PM -40.5 °F -59.7 °F -48.5 °F 64% 30.06 in - WSW 5.8 mph - N/A   Unknown
4:00 PM -39.3 °F -63.6 °F -47.0 °F 65% 30.06 in - WSW 9.2 mph - N/A   Unknown
5:00 PM -39 °F - -47 °F 46% 30.05 in - WSW 9.2 mph - -  
5:00 PM -38.7 °F -62.9 °F -46.7 °F 64% 30.05 in - WSW 9.2 mph - N/A   Unknown
6:00 PM -39.8 °F -62.7 °F -47.7 °F 64% 30.06 in - WSW 8.1 mph - N/A   Unknown
7:00 PM -39.5 °F -62.2 °F -47.2 °F 65% 30.06 in - West 8.1 mph - N/A   Unknown
8:00 PM -40.5 °F -59.7 °F -48.5 °F 64% 30.06 in - WSW 5.8 mph - N/A   Unknown
9:00 PM -38.4 °F -57.1 °F -45.9 °F 66% 30.06 in - WSW 5.8 mph - N/A   Unknown
10:00 PM -39.1 °F -60.0 °F -46.8 °F 65% 30.06 in - WSW 6.9 mph - N/A   Unknown
11:00 PM -38 °F - -45 °F 50% 30.06 in - SW 6.9 mph - -  
11:00 PM -37.7 °F -58.3 °F -44.9 °F 67% 30.06 in - SW 6.9 mph - N/A   Unknown